{"data":{"norad_id":64308,"epoch":"2026-09-20T14:22:13.275264Z","epoch_age_seconds":129051,"freshness":"FRESH","line1":"1 64308U 25123T   26263.59876476  .00015613  00000+0  54619-3 0  9998","line2":"2 64308  70.0005  60.6438 0003188 266.6950  93.3860 15.29594417 70874","mean_motion":15.29594417,"eccentricity":0.0003188,"inclination_deg":70.0005,"raan_deg":60.6438,"arg_perigee_deg":266.695,"mean_anomaly_deg":93.386,"bstar":0.00054619,"rev_number":7087,"period_min":94.142603032265,"perigee_km":474.83840236117,"apogee_km":479.20925290487,"semimajor_km":6855.160827633,"source":"CELESTRAK","updated_at":"2026-09-21T09:00:35.308424Z"}}